Location: Ch�tillon
(48.8024°N, 2.2935°E)
Time: 22:10:28
(UTC+00:00)

Cosmos 2227 Rocket - Pass Details

Date: 16 October 2021
Orbit: 839 x 845 km, 71.0° (Epoch: 06 December)

Event Time Altitude Azimuth Distance (km) Brightness Sun altitude
Rises 17:41:00 0° 329° (NNW) 3,416 5.7 -7.6°
Reaches altitude 10° 17:43:28 10° 327° (NNW) 2,476 5.0 -8.1°
Maximum altitude 17:49:04 63° 248° (WSW) 941 2.8 -9.0°
Drops below altitude 10° 17:54:38 10° 168° (SSE) 2,457 4.5 -9.9°
Sets 17:57:05 0° 165° (SSE) 3,387 5.2 -10.3°
